OAL063 ZGOW-RCYU

Flight info

Callsign OAL063
Flight time 1h 47m
Altitude 11000
Route SHANTOU GULEI CHINMEN MAGONG ZHONGLIAO HUALIEN
Aircraft C208/L-SDFGR/C

Departure

Time 2026-04-27 15:51
Airport Jieyang Chaoshan International Airport (ZGOW)

Arrival

Time 2026-04-27 17:38
Airport Hualien Chiashan Airport (RCYU)
Time Latitude Longitude Altitude Speed Heading
2026-04-27 15:38 23.54487 116.50137 20 ft 0 kts 131°
2026-04-27 15:45 23.54488 116.50137 20 ft 0 kts 131°
2026-04-27 15:48 23.54502 116.50139 20 ft 8 kts 313°
2026-04-27 15:48 23.54561 116.50059 23 ft 14 kts 315°
2026-04-27 15:48 23.54668 116.50080 21 ft 20 kts 39°
2026-04-27 15:49 23.54912 116.50303 21 ft 23 kts 38°
2026-04-27 15:49 23.55047 116.50426 20 ft 23 kts 40°
2026-04-27 15:49 23.55169 116.50534 20 ft 26 kts 40°
2026-04-27 15:49 23.55303 116.50660 20 ft 25 kts 42°
2026-04-27 15:50 23.55411 116.50737 21 ft 19 kts 358°
2026-04-27 15:50 23.55436 116.50659 22 ft 14 kts 252°
2026-04-27 15:50 23.55391 116.50535 22 ft 8 kts 250°
2026-04-27 15:50 23.55335 116.50458 22 ft 20 kts 218°
2026-04-27 15:51 23.55106 116.50252 21 ft 68 kts 219°
2026-04-27 15:51 23.54717 116.49894 123 ft 89 kts 218°
2026-04-27 15:51 23.54215 116.49485 392 ft 91 kts 209°
2026-04-27 15:51 23.53635 116.49473 651 ft 92 kts 133°
2026-04-27 15:52 23.53573 116.50195 816 ft 102 kts 82°
2026-04-27 15:52 23.53709 116.50971 1069 ft 105 kts 75°
2026-04-27 15:52 23.53995 116.51686 1385 ft 104 kts 68°
2026-04-27 15:52 23.54325 116.52463 1633 ft 119 kts 68°
2026-04-27 15:53 23.54459 116.53343 1878 ft 122 kts 111°
2026-04-27 15:53 23.53883 116.54018 2133 ft 125 kts 141°
2026-04-27 15:53 23.53392 116.54817 2404 ft 130 kts 118°
2026-04-27 15:53 23.53000 116.55703 2669 ft 131 kts 118°
2026-04-27 15:54 23.52609 116.56597 2918 ft 134 kts 118°
2026-04-27 15:54 23.52210 116.57513 3168 ft 134 kts 119°
2026-04-27 15:54 23.51806 116.58440 3417 ft 136 kts 118°
2026-04-27 15:54 23.51410 116.59367 3666 ft 137 kts 118°
2026-04-27 15:55 23.51012 116.60309 3897 ft 136 kts 118°
2026-04-27 15:55 23.50748 116.60923 4063 ft 135 kts 117°
2026-04-27 15:55 23.50217 116.62162 4386 ft 135 kts 118°
2026-04-27 15:55 23.49818 116.63093 4628 ft 136 kts 117°
2026-04-27 15:56 23.49419 116.64032 4876 ft 137 kts 117°
2026-04-27 15:56 23.49016 116.64974 5114 ft 137 kts 117°
2026-04-27 15:56 23.48613 116.65913 5353 ft 136 kts 117°
2026-04-27 15:56 23.48213 116.66849 5599 ft 137 kts 117°
2026-04-27 15:57 23.47811 116.67788 5848 ft 137 kts 117°
2026-04-27 15:57 23.47409 116.68725 6095 ft 136 kts 117°
2026-04-27 15:57 23.47008 116.69665 6337 ft 138 kts 116°
2026-04-27 15:57 23.46605 116.70609 6565 ft 138 kts 116°
2026-04-27 15:58 23.46196 116.71555 6797 ft 139 kts 117°
2026-04-27 15:58 23.45788 116.72508 7028 ft 138 kts 117°
2026-04-27 15:58 23.45382 116.73460 7261 ft 139 kts 117°
2026-04-27 15:58 23.44975 116.74410 7492 ft 139 kts 117°
2026-04-27 15:59 23.44567 116.75360 7726 ft 138 kts 118°
2026-04-27 15:59 23.44200 116.76326 7963 ft 140 kts 104°
2026-04-27 15:59 23.44317 116.77375 8202 ft 142 kts 69°
2026-04-27 15:59 23.44750 116.78323 8450 ft 141 kts 65°
2026-04-27 16:00 23.45177 116.79286 8695 ft 141 kts 66°
2026-04-27 16:00 23.45465 116.79932 8855 ft 140 kts 66°
2026-04-27 16:00 23.46024 116.81189 9176 ft 139 kts 65°
2026-04-27 16:00 23.46450 116.82131 9421 ft 138 kts 65°
2026-04-27 16:01 23.46869 116.83068 9666 ft 137 kts 66°
2026-04-27 16:01 23.47286 116.84004 9916 ft 138 kts 65°
2026-04-27 16:01 23.47703 116.84939 10141 ft 136 kts 65°
2026-04-27 16:01 23.48116 116.85865 10368 ft 135 kts 66°
2026-04-27 16:02 23.48386 116.86472 10518 ft 134 kts 66°
2026-04-27 16:02 23.48791 116.87379 10743 ft 132 kts 66°
2026-04-27 16:02 23.49192 116.88277 10961 ft 132 kts 65°
2026-04-27 16:02 23.49767 116.89569 11000 ft 154 kts 66°
2026-04-27 16:03 23.50091 116.90301 11002 ft 164 kts 66°
2026-04-27 16:03 23.50604 116.91459 11000 ft 175 kts 65°
2026-04-27 16:03 23.51149 116.92681 10999 ft 183 kts 65°
2026-04-27 16:03 23.51714 116.93943 10998 ft 188 kts 65°
2026-04-27 16:04 23.52291 116.95234 11000 ft 191 kts 65°
2026-04-27 16:04 23.52876 116.96548 10993 ft 194 kts 65°
2026-04-27 16:04 23.53466 116.97874 10997 ft 195 kts 65°
2026-04-27 16:04 23.54052 116.99188 11001 ft 196 kts 65°
2026-04-27 16:05 23.54649 117.00531 11000 ft 197 kts 65°
2026-04-27 16:05 23.55248 117.01875 10993 ft 197 kts 65°
2026-04-27 16:05 23.55846 117.03222 10991 ft 197 kts 65°
2026-04-27 16:05 23.56444 117.04567 10993 ft 197 kts 65°
2026-04-27 16:06 23.57042 117.05914 10995 ft 197 kts 65°
2026-04-27 16:06 23.57637 117.07254 10990 ft 197 kts 65°
2026-04-27 16:06 23.58234 117.08595 10989 ft 197 kts 65°
2026-04-27 16:06 23.58832 117.09942 10989 ft 198 kts 65°
2026-04-27 16:07 23.59431 117.11292 10988 ft 198 kts 65°
2026-04-27 16:07 23.60030 117.12641 10990 ft 198 kts 65°
2026-04-27 16:07 23.60623 117.13977 10989 ft 198 kts 65°
2026-04-27 16:07 23.61221 117.15326 10990 ft 197 kts 65°
2026-04-27 16:08 23.61818 117.16673 10994 ft 198 kts 65°
2026-04-27 16:08 23.62418 117.18025 10992 ft 198 kts 65°
2026-04-27 16:08 23.63017 117.19377 10991 ft 198 kts 65°
2026-04-27 16:08 23.63615 117.20726 10994 ft 198 kts 65°
2026-04-27 16:09 23.64213 117.22075 10994 ft 198 kts 65°
2026-04-27 16:09 23.65405 117.24772 10991 ft 197 kts 65°
2026-04-27 16:09 23.66003 117.26121 10991 ft 198 kts 65°
2026-04-27 16:10 23.67194 117.28815 10989 ft 197 kts 65°
2026-04-27 16:10 23.68383 117.31498 10989 ft 196 kts 65°
2026-04-27 16:11 23.68977 117.32838 10986 ft 196 kts 65°
2026-04-27 16:11 23.70160 117.35524 10983 ft 197 kts 65°
2026-04-27 16:12 23.71335 117.38194 10991 ft 196 kts 65°
2026-04-27 16:12 23.71930 117.39531 10993 ft 196 kts 65°
2026-04-27 16:12 23.73114 117.42215 10991 ft 196 kts 66°
2026-04-27 16:13 23.73706 117.43559 10996 ft 197 kts 65°
2026-04-27 16:13 23.74892 117.46256 10994 ft 197 kts 66°
2026-04-27 16:13 23.75482 117.47600 10995 ft 197 kts 65°
2026-04-27 16:14 23.76673 117.50291 10991 ft 197 kts 65°
2026-04-27 16:14 23.77856 117.52988 10989 ft 196 kts 65°
2026-04-27 16:15 23.79030 117.55652 10988 ft 196 kts 65°
2026-04-27 16:15 23.80209 117.58334 10987 ft 195 kts 66°
2026-04-27 16:16 23.81385 117.61012 10990 ft 196 kts 65°
2026-04-27 16:16 23.83093 117.63339 10986 ft 197 kts 47°
2026-04-27 16:17 23.84932 117.65558 10986 ft 198 kts 48°
2026-04-27 16:17 23.86799 117.67785 10990 ft 199 kts 48°
2026-04-27 16:18 23.88663 117.70012 10989 ft 200 kts 48°
2026-04-27 16:18 23.90541 117.72257 10991 ft 200 kts 48°
2026-04-27 16:19 23.91482 117.73383 10990 ft 201 kts 48°
2026-04-27 16:19 23.92427 117.74511 10991 ft 202 kts 48°
2026-04-27 16:20 23.95275 117.77919 10992 ft 202 kts 48°
2026-04-27 16:20 23.96221 117.79054 10999 ft 202 kts 47°
2026-04-27 16:20 23.98107 117.81310 10993 ft 201 kts 48°
2026-04-27 16:21 23.99052 117.82440 10995 ft 201 kts 48°
2026-04-27 16:21 24.01878 117.85831 10992 ft 201 kts 48°
2026-04-27 16:22 24.02818 117.86959 10991 ft 201 kts 48°
2026-04-27 16:22 24.04708 117.89226 10994 ft 202 kts 48°
2026-04-27 16:22 24.05657 117.90367 10994 ft 203 kts 48°
2026-04-27 16:23 24.06607 117.91504 10993 ft 202 kts 48°
2026-04-27 16:23 24.08495 117.93769 10992 ft 201 kts 48°
2026-04-27 16:23 24.09437 117.94903 10992 ft 201 kts 48°
2026-04-27 16:24 24.10379 117.96035 10992 ft 201 kts 48°
2026-04-27 16:24 24.12262 117.98298 10991 ft 201 kts 48°
2026-04-27 16:25 24.14142 118.00559 10992 ft 201 kts 48°
2026-04-27 16:25 24.16010 118.02805 10988 ft 201 kts 48°
2026-04-27 16:26 24.17893 118.05072 10987 ft 201 kts 48°
2026-04-27 16:26 24.19779 118.07335 10989 ft 201 kts 48°
2026-04-27 16:27 24.21656 118.09603 10985 ft 201 kts 48°
2026-04-27 16:27 24.24476 118.13002 10986 ft 201 kts 48°
2026-04-27 16:28 24.26355 118.15269 10992 ft 201 kts 48°
2026-04-27 16:28 24.28232 118.17534 10990 ft 201 kts 48°
2026-04-27 16:29 24.31047 118.20933 10989 ft 201 kts 48°
2026-04-27 16:30 24.32921 118.23196 10989 ft 200 kts 47°
2026-04-27 16:30 24.34792 118.25456 10998 ft 200 kts 47°
2026-04-27 16:31 24.37600 118.28854 10995 ft 200 kts 47°
2026-04-27 16:31 24.39471 118.31119 11003 ft 201 kts 46°
2026-04-27 16:32 24.41225 118.33524 10985 ft 204 kts 67°
2026-04-27 16:32 24.41539 118.35033 10981 ft 202 kts 89°
2026-04-27 16:33 24.40704 118.37848 10982 ft 194 kts 128°
2026-04-27 16:33 24.39919 118.39054 10982 ft 194 kts 127°
2026-04-27 16:33 24.39150 118.40267 10981 ft 193 kts 127°
2026-04-27 16:33 24.38380 118.41476 10980 ft 193 kts 127°
2026-04-27 16:34 24.37610 118.42683 10977 ft 193 kts 127°
2026-04-27 16:34 24.36840 118.43891 10976 ft 193 kts 127°
2026-04-27 16:34 24.36070 118.45101 10977 ft 193 kts 127°
2026-04-27 16:34 24.35301 118.46308 10982 ft 193 kts 127°
2026-04-27 16:35 24.34533 118.47512 10982 ft 193 kts 127°
2026-04-27 16:35 24.33764 118.48717 10984 ft 193 kts 127°
2026-04-27 16:35 24.32235 118.51116 10979 ft 193 kts 127°
2026-04-27 16:36 24.31466 118.52321 10978 ft 193 kts 127°
2026-04-27 16:36 24.30697 118.53525 10979 ft 193 kts 127°
2026-04-27 16:36 24.29924 118.54735 10977 ft 193 kts 127°
2026-04-27 16:36 24.29154 118.55940 10976 ft 193 kts 127°
2026-04-27 16:37 24.28384 118.57147 10976 ft 193 kts 127°
2026-04-27 16:37 24.27613 118.58353 10975 ft 193 kts 127°
2026-04-27 16:37 24.26914 118.59611 10976 ft 194 kts 121°
2026-04-27 16:37 24.26269 118.60907 10975 ft 194 kts 120°
2026-04-27 16:38 24.25377 118.61966 10974 ft 189 kts 151°
2026-04-27 16:38 24.24283 118.62774 10979 ft 191 kts 141°
2026-04-27 16:38 24.23421 118.63892 10983 ft 193 kts 128°
2026-04-27 16:38 24.22639 118.65087 10982 ft 193 kts 127°
2026-04-27 16:39 24.21870 118.66292 10985 ft 193 kts 127°
2026-04-27 16:39 24.21111 118.67485 10988 ft 193 kts 127°
2026-04-27 16:39 24.20344 118.68693 10987 ft 193 kts 127°
2026-04-27 16:39 24.19576 118.69902 10992 ft 193 kts 127°
2026-04-27 16:40 24.18807 118.71108 10994 ft 193 kts 127°
2026-04-27 16:40 24.18038 118.72315 10990 ft 194 kts 127°
2026-04-27 16:40 24.17266 118.73526 10989 ft 194 kts 127°
2026-04-27 16:40 24.16493 118.74739 10988 ft 194 kts 127°
2026-04-27 16:41 24.15723 118.75949 10986 ft 193 kts 127°
2026-04-27 16:41 24.14954 118.77156 10986 ft 193 kts 127°
2026-04-27 16:41 24.14182 118.78365 10984 ft 194 kts 127°
2026-04-27 16:41 24.13414 118.79577 10982 ft 194 kts 127°
2026-04-27 16:42 24.12643 118.80789 10985 ft 194 kts 127°
2026-04-27 16:42 24.11870 118.82000 10981 ft 194 kts 127°
2026-04-27 16:42 24.11097 118.83208 10979 ft 194 kts 127°
2026-04-27 16:42 24.10325 118.84420 10986 ft 194 kts 127°
2026-04-27 16:43 24.09553 118.85631 10987 ft 194 kts 127°
2026-04-27 16:43 24.08790 118.86824 10986 ft 194 kts 127°
2026-04-27 16:43 24.08015 118.88039 10987 ft 194 kts 127°
2026-04-27 16:43 24.07238 118.89251 10983 ft 194 kts 127°
2026-04-27 16:44 24.06465 118.90464 10981 ft 194 kts 127°
2026-04-27 16:44 24.05691 118.91679 10982 ft 194 kts 127°
2026-04-27 16:44 24.04918 118.92892 10981 ft 195 kts 127°
2026-04-27 16:44 24.04141 118.94109 10986 ft 194 kts 127°
2026-04-27 16:45 24.03368 118.95320 10986 ft 194 kts 127°
2026-04-27 16:45 24.02595 118.96532 10984 ft 194 kts 126°
2026-04-27 16:45 24.01821 118.97745 10982 ft 194 kts 126°
2026-04-27 16:45 24.01047 118.98956 10980 ft 194 kts 127°
2026-04-27 16:46 24.00273 119.00168 10981 ft 194 kts 126°
2026-04-27 16:46 23.99506 119.01365 10983 ft 195 kts 127°
2026-04-27 16:46 23.98731 119.02580 10985 ft 194 kts 126°
2026-04-27 16:46 23.97959 119.03796 10985 ft 195 kts 126°
2026-04-27 16:47 23.97183 119.05014 10983 ft 195 kts 127°
2026-04-27 16:47 23.96403 119.06229 10984 ft 195 kts 126°
2026-04-27 16:47 23.95626 119.07448 10983 ft 195 kts 127°
2026-04-27 16:47 23.94849 119.08662 10989 ft 195 kts 127°
2026-04-27 16:48 23.94070 119.09875 10993 ft 195 kts 126°
2026-04-27 16:48 23.93293 119.11090 10992 ft 195 kts 126°
2026-04-27 16:48 23.93102 119.11387 10990 ft 195 kts 127°
2026-04-27 16:49 23.93053 119.11464 10990 ft 195 kts 127°
2026-04-27 16:49 23.92650 119.12094 10982 ft 183 kts 126°
2026-04-27 16:49 23.91965 119.13167 10973 ft 163 kts 127°
2026-04-27 16:49 23.91343 119.14141 10980 ft 150 kts 127°
2026-04-27 16:50 23.90744 119.15079 10985 ft 157 kts 127°
2026-04-27 16:50 23.90087 119.16106 10998 ft 171 kts 126°
2026-04-27 16:50 23.89381 119.17206 10997 ft 182 kts 126°
2026-04-27 16:50 23.88398 119.18742 10999 ft 190 kts 126°
2026-04-27 16:51 23.87884 119.19546 10998 ft 192 kts 126°
2026-04-27 16:51 23.87112 119.20754 11000 ft 195 kts 126°
2026-04-27 16:51 23.86330 119.21977 11003 ft 197 kts 126°
2026-04-27 16:51 23.85543 119.23207 11005 ft 198 kts 126°
2026-04-27 16:52 23.84754 119.24441 11003 ft 198 kts 126°
2026-04-27 16:52 23.83970 119.25664 11002 ft 199 kts 126°
2026-04-27 16:52 23.83177 119.26903 11000 ft 199 kts 126°
2026-04-27 16:52 23.82381 119.28145 11000 ft 199 kts 126°
2026-04-27 16:53 23.81586 119.29387 10999 ft 199 kts 126°
2026-04-27 16:53 23.81434 119.29624 10999 ft 199 kts 126°
2026-04-27 16:53 23.81278 119.29867 10998 ft 199 kts 126°
2026-04-27 16:55 23.81147 119.30072 11000 ft 199 kts 126°
2026-04-27 16:55 23.80354 119.31313 11002 ft 199 kts 126°
2026-04-27 16:55 23.79557 119.32556 11006 ft 200 kts 126°
2026-04-27 16:55 23.78759 119.33798 11001 ft 200 kts 126°
2026-04-27 16:56 23.77961 119.35044 10999 ft 200 kts 126°
2026-04-27 16:56 23.77162 119.36292 10998 ft 201 kts 126°
2026-04-27 16:56 23.76363 119.37539 11000 ft 201 kts 126°
2026-04-27 16:56 23.75562 119.38786 10998 ft 200 kts 126°
2026-04-27 16:57 23.74774 119.40015 11001 ft 200 kts 126°
2026-04-27 16:57 23.73976 119.41260 11001 ft 200 kts 126°
2026-04-27 16:57 23.73177 119.42507 10999 ft 200 kts 126°
2026-04-27 16:57 23.72377 119.43754 11000 ft 200 kts 126°
2026-04-27 16:58 23.71578 119.44999 11001 ft 200 kts 126°
2026-04-27 16:58 23.70780 119.46242 11003 ft 200 kts 126°
2026-04-27 16:58 23.69979 119.47492 10999 ft 201 kts 126°
2026-04-27 16:58 23.69178 119.48740 11003 ft 200 kts 126°
2026-04-27 16:59 23.68379 119.49985 11004 ft 200 kts 126°
2026-04-27 16:59 23.67596 119.51241 11002 ft 200 kts 123°
2026-04-27 16:59 23.66872 119.52518 11001 ft 201 kts 122°
2026-04-27 16:59 23.66133 119.53832 11004 ft 200 kts 122°
2026-04-27 17:00 23.64922 119.55985 11004 ft 200 kts 122°
2026-04-27 17:00 23.63958 119.57702 10997 ft 200 kts 122°
2026-04-27 17:00 23.63228 119.58999 11003 ft 200 kts 122°
2026-04-27 17:01 23.62496 119.60306 10998 ft 202 kts 122°
2026-04-27 17:01 23.61761 119.61631 10996 ft 207 kts 122°
2026-04-27 17:01 23.61013 119.62962 11002 ft 204 kts 122°
2026-04-27 17:01 23.60271 119.64276 10997 ft 203 kts 122°
2026-04-27 17:02 23.59647 119.65657 11007 ft 208 kts 103°
2026-04-27 17:02 23.59781 119.67204 10998 ft 207 kts 65°
2026-04-27 17:02 23.60553 119.68499 11001 ft 203 kts 46°
2026-04-27 17:02 23.61657 119.69429 10998 ft 199 kts 26°
2026-04-27 17:03 23.62960 119.69889 11000 ft 196 kts
2026-04-27 17:03 23.64316 119.69906 10995 ft 195 kts
2026-04-27 17:03 23.65562 119.70469 10996 ft 199 kts 40°
2026-04-27 17:03 23.66246 119.71765 10998 ft 201 kts 76°
2026-04-27 17:04 23.66422 119.73258 11002 ft 201 kts 88°
2026-04-27 17:04 23.66399 119.74780 11003 ft 201 kts 92°
2026-04-27 17:04 23.66347 119.76305 11008 ft 201 kts 92°
2026-04-27 17:04 23.66294 119.77826 11009 ft 201 kts 92°
2026-04-27 17:05 23.66240 119.79347 11010 ft 200 kts 92°
2026-04-27 17:05 23.66185 119.80867 11006 ft 201 kts 92°
2026-04-27 17:05 23.66133 119.82390 11007 ft 201 kts 92°
2026-04-27 17:05 23.66081 119.83911 11009 ft 201 kts 92°
2026-04-27 17:06 23.66028 119.85432 11009 ft 200 kts 93°
2026-04-27 17:06 23.65888 119.86946 11005 ft 201 kts 96°
2026-04-27 17:06 23.65917 119.88464 11003 ft 201 kts 80°
2026-04-27 17:06 23.66270 119.89937 11002 ft 200 kts 72°
2026-04-27 17:07 23.66684 119.91387 11000 ft 200 kts 73°
2026-04-27 17:07 23.67068 119.92849 11000 ft 200 kts 74°
2026-04-27 17:07 23.67442 119.94313 10998 ft 200 kts 74°
2026-04-27 17:07 23.67816 119.95773 11001 ft 200 kts 74°
2026-04-27 17:08 23.68192 119.97236 10999 ft 200 kts 74°
2026-04-27 17:08 23.68567 119.98700 10991 ft 201 kts 74°
2026-04-27 17:08 23.68943 120.00168 10988 ft 201 kts 74°
2026-04-27 17:08 23.69320 120.01635 10989 ft 201 kts 74°
2026-04-27 17:09 23.69692 120.03084 10993 ft 200 kts 74°
2026-04-27 17:09 23.70066 120.04548 10991 ft 200 kts 74°
2026-04-27 17:09 23.70440 120.06013 10988 ft 200 kts 74°
2026-04-27 17:09 23.70816 120.07480 10991 ft 200 kts 74°
2026-04-27 17:10 23.71191 120.08941 10998 ft 200 kts 74°
2026-04-27 17:10 23.71565 120.10407 10994 ft 201 kts 74°
2026-04-27 17:10 23.71938 120.11873 10996 ft 201 kts 74°
2026-04-27 17:10 23.72313 120.13340 10992 ft 201 kts 74°
2026-04-27 17:11 23.72688 120.14806 10993 ft 201 kts 74°
2026-04-27 17:11 23.73439 120.17750 10991 ft 201 kts 75°
2026-04-27 17:11 23.73815 120.19221 11002 ft 201 kts 74°
2026-04-27 17:12 23.74564 120.22154 10997 ft 201 kts 75°
2026-04-27 17:12 23.74935 120.23622 10998 ft 201 kts 75°
2026-04-27 17:12 23.75311 120.25090 11001 ft 201 kts 75°
2026-04-27 17:13 23.75684 120.26560 11002 ft 201 kts 75°
2026-04-27 17:13 23.76057 120.28028 11005 ft 201 kts 75°
2026-04-27 17:13 23.76431 120.29500 10999 ft 202 kts 75°
2026-04-27 17:13 23.76807 120.30975 11001 ft 202 kts 75°
2026-04-27 17:14 23.77182 120.32451 11003 ft 202 kts 75°
2026-04-27 17:14 23.77552 120.33908 11004 ft 202 kts 75°
2026-04-27 17:14 23.77927 120.35385 11004 ft 202 kts 75°
2026-04-27 17:14 23.78303 120.36865 11006 ft 202 kts 75°
2026-04-27 17:15 23.78678 120.38340 11008 ft 202 kts 75°
2026-04-27 17:15 23.79053 120.39821 11004 ft 202 kts 75°
2026-04-27 17:15 23.79426 120.41300 11009 ft 202 kts 74°
2026-04-27 17:15 23.79804 120.42778 11009 ft 203 kts 74°
2026-04-27 17:16 23.80180 120.44262 11011 ft 203 kts 75°
2026-04-27 17:16 23.80556 120.45745 11008 ft 202 kts 75°
2026-04-27 17:16 23.80930 120.47226 11011 ft 202 kts 75°
2026-04-27 17:16 23.81300 120.48709 11005 ft 202 kts 75°
2026-04-27 17:17 23.81674 120.50192 11010 ft 203 kts 75°
2026-04-27 17:17 23.82050 120.51685 11017 ft 204 kts 74°
2026-04-27 17:17 23.82437 120.53182 11014 ft 205 kts 74°
2026-04-27 17:18 23.83181 120.56151 11021 ft 203 kts 75°
2026-04-27 17:18 23.83556 120.57638 11016 ft 203 kts 75°
2026-04-27 17:18 23.83933 120.59123 11017 ft 203 kts 75°
2026-04-27 17:18 23.84314 120.60620 11023 ft 205 kts 74°
2026-04-27 17:19 23.84690 120.62119 11024 ft 204 kts 75°
2026-04-27 17:19 23.85063 120.63619 11017 ft 206 kts 75°
2026-04-27 17:19 23.85442 120.65124 11018 ft 205 kts 74°
2026-04-27 17:19 23.85824 120.66627 11013 ft 205 kts 75°
2026-04-27 17:20 23.86200 120.68128 11016 ft 204 kts 75°
2026-04-27 17:20 23.86569 120.69620 11017 ft 203 kts 75°
2026-04-27 17:20 23.86951 120.71117 11014 ft 204 kts 75°
2026-04-27 17:20 23.87323 120.72605 11025 ft 203 kts 75°
2026-04-27 17:21 23.87694 120.74088 11025 ft 203 kts 75°
2026-04-27 17:21 23.88065 120.75574 11024 ft 202 kts 75°
2026-04-27 17:21 23.88406 120.77040 11032 ft 203 kts 80°
2026-04-27 17:21 23.88643 120.78586 11035 ft 204 kts 81°
2026-04-27 17:22 23.88882 120.80115 11045 ft 204 kts 80°
2026-04-27 17:22 23.89123 120.81620 11036 ft 204 kts 81°
2026-04-27 17:22 23.89360 120.83147 11040 ft 204 kts 80°
2026-04-27 17:22 23.89605 120.84675 11052 ft 205 kts 80°
2026-04-27 17:23 23.89846 120.86217 11038 ft 206 kts 81°
2026-04-27 17:23 23.90083 120.87757 11053 ft 206 kts 81°
2026-04-27 17:23 23.90325 120.89294 11051 ft 204 kts 81°
2026-04-27 17:23 23.90586 120.90828 11055 ft 205 kts 79°
2026-04-27 17:24 23.90884 120.92347 11055 ft 204 kts 78°
2026-04-27 17:24 23.90891 120.93888 11047 ft 205 kts 101°
2026-04-27 17:24 23.90808 120.95430 11059 ft 204 kts 85°
2026-04-27 17:24 23.91025 120.96962 11063 ft 203 kts 80°
2026-04-27 17:25 23.91274 120.98484 11061 ft 204 kts 80°
2026-04-27 17:25 23.91523 121.00015 11064 ft 205 kts 79°
2026-04-27 17:25 23.91770 121.01545 11065 ft 204 kts 80°
2026-04-27 17:25 23.92015 121.03071 11076 ft 205 kts 79°
2026-04-27 17:26 23.92262 121.04592 11070 ft 202 kts 80°
2026-04-27 17:26 23.92503 121.06102 11066 ft 204 kts 80°
2026-04-27 17:26 23.92753 121.07635 11079 ft 207 kts 79°
2026-04-27 17:26 23.93006 121.09182 11075 ft 206 kts 80°
2026-04-27 17:27 23.93251 121.10714 11075 ft 203 kts 80°
2026-04-27 17:27 23.93496 121.12236 11074 ft 203 kts 80°
2026-04-27 17:27 23.93739 121.13752 11076 ft 202 kts 80°
2026-04-27 17:27 23.93985 121.15270 11077 ft 203 kts 80°
2026-04-27 17:28 23.94229 121.16801 11084 ft 206 kts 80°
2026-04-27 17:28 23.94486 121.18346 11073 ft 206 kts 79°
2026-04-27 17:28 23.94989 121.21470 11094 ft 209 kts 80°
2026-04-27 17:29 23.95242 121.23045 11076 ft 209 kts 79°
2026-04-27 17:29 23.95495 121.24600 11075 ft 207 kts 79°
2026-04-27 17:29 23.95694 121.26149 11070 ft 210 kts 89°
2026-04-27 17:29 23.95624 121.27730 11073 ft 208 kts 94°
2026-04-27 17:30 23.95629 121.29299 11076 ft 205 kts 86°
2026-04-27 17:30 23.95790 121.32408 11088 ft 207 kts 86°
2026-04-27 17:30 23.95834 121.33282 11085 ft 205 kts 87°
2026-04-27 17:31 23.95863 121.33857 11082 ft 205 kts 87°
2026-04-27 17:31 23.95946 121.35413 11077 ft 204 kts 86°
2026-04-27 17:31 23.95971 121.35833 11076 ft 204 kts 86°
2026-04-27 17:31 23.96052 121.37262 11073 ft 204 kts 86°
2026-04-27 17:32 23.96133 121.38810 11068 ft 205 kts 86°
2026-04-27 17:32 23.96201 121.41813 10509 ft 189 kts 98°
2026-04-27 17:32 23.95982 121.43208 10225 ft 184 kts 101°
2026-04-27 17:33 23.95751 121.44581 9946 ft 184 kts 101°
2026-04-27 17:33 23.95633 121.45963 9627 ft 182 kts 87°
2026-04-27 17:33 23.95750 121.47333 9320 ft 181 kts 84°
2026-04-27 17:33 23.95875 121.48692 9020 ft 178 kts 84°
2026-04-27 17:34 23.95999 121.50026 8598 ft 171 kts 84°
2026-04-27 17:34 23.96114 121.51292 8121 ft 164 kts 88°
2026-04-27 17:34 23.95878 121.52485 7649 ft 159 kts 111°
2026-04-27 17:34 23.95499 121.53611 7195 ft 156 kts 111°
2026-04-27 17:35 23.95131 121.54722 6749 ft 154 kts 111°
2026-04-27 17:35 23.94767 121.55819 6292 ft 153 kts 111°
2026-04-27 17:35 23.94441 121.56918 5810 ft 152 kts 99°
2026-04-27 17:35 23.94700 121.58009 5328 ft 152 kts 52°
2026-04-27 17:36 23.95574 121.58614 4740 ft 154 kts 19°
2026-04-27 17:36 23.96714 121.58999 3315 ft 187 kts 16°
2026-04-27 17:36 23.97923 121.59456 2351 ft 180 kts 21°
2026-04-27 17:36 23.99047 121.59955 1545 ft 171 kts 23°
2026-04-27 17:37 24.00141 121.60498 602 ft 172 kts 24°
2026-04-27 17:37 24.01168 121.61048 110 ft 153 kts 26°
2026-04-27 17:37 24.02028 121.61513 56 ft 123 kts 22°
2026-04-27 17:37 24.02623 121.61829 59 ft 71 kts 28°
2026-04-27 17:38 24.02876 121.61970 60 ft 22 kts 25°
2026-04-27 17:38 24.02915 121.61990 64 ft 3 kts 22°
2026-04-27 17:38 24.02955 121.61963 58 ft 8 kts 295°
2026-04-27 17:38 24.02983 121.61895 59 ft 14 kts 295°
2026-04-27 17:39 24.02976 121.61817 59 ft 12 kts 210°
2026-04-27 17:39 24.02873 121.61760 59 ft 18 kts 207°
2026-04-27 17:39 24.02763 121.61700 59 ft 16 kts 206°
2026-04-27 17:39 24.02659 121.61645 54 ft 17 kts 204°
2026-04-27 17:40 24.02597 121.61614 60 ft 14 kts 206°
2026-04-27 17:40 24.02509 121.61563 58 ft 13 kts 208°
2026-04-27 17:40 24.02411 121.61514 56 ft 16 kts 207°
2026-04-27 17:40 24.02390 121.61481 54 ft 5 kts 295°
2026-04-27 17:41 24.02416 121.61421 55 ft 4 kts 294°
2026-04-27 17:41 24.02418 121.61417 56 ft 0 kts 295°